Location: Newark
(49.4900°N, 20.6656°E)
Time: 11:08:58
(UTC+00:00)

STARLINK-1759 - Pass Details

Date: 24 September 2020
Orbit: 548 x 550 km, 53.0° (Epoch: 25 October)

Event Time Altitude Azimuth Distance (km) Brightness Sun altitude
Exits shadow 01:36:16 42° 37° (NE) 769 4.7 -26.9°
Drops below altitude 10° 01:39:23 10° 73° (ENE) 1,787 7.1 -26.5°
Sets 01:41:38 0° 79° (E) 2,675 8.2 -26.2°
